Total_Precipitation_Accumulation
0.00 0.00 0.00 0.00 0.00 0.00 0.00 0.00 0.00 0.00 0.00 0.00 0.00 0.00 0.00 0.00 0.00 0.00 0.00 0.00 0.00 0.00 0.00 0.00 0.00 0.03 0.02 0.01 0.01 0.01 0.01 0.01 0.00 0.00 0.00 0.00 0.00 0.00 0.00 0.00 0.00 0.00 0.00
0.00 0.00 0.00 0.00 0.00 0.00 0.00 0.00 0.00 0.00 0.00 0.00 0.00 0.00 0.00 0.00 0.00 0.00 0.00 0.00 0.00 0.00 0.00 0.00 0.00 0.00 0.01 0.01 0.00 0.01 0.01 0.02 0.02 0.01 0.00 0.00 0.00 0.00 0.00 0.01 0.00 0.00 0.00
0.00 0.01 0.01 0.01 0.01 0.02 0.01 0.00 0.00 0.00 0.00 0.00 0.00 0.00 0.00 0.00 0.00 0.00 0.00 0.00 0.00 0.01 0.01 0.01 0.00 0.01 0.01 0.01 0.01 0.00 0.01 0.05 0.07 0.03 0.00 0.00 0.00 0.00 0.00 0.00 0.00 0.00 0.00
0.00 0.00 0.02 0.02 0.02 0.02 0.03 0.02 0.01 0.00 0.00 0.00 0.00 0.00 0.00 0.00 0.00 0.00 0.00 0.00 0.01 0.00 0.00 0.00 0.01 0.03 0.03 0.04 0.02 0.05 0.10 0.10 0.07 0.07 0.04 0.01 0.00 0.00 0.00 0.00 0.00 0.00 0.00
0.00 0.00 0.02 0.06 0.06 0.11 0.22 0.23 0.16 0.16 0.10 0.04 0.01 0.01 0.01 0.01 0.01 0.00 0.00 0.00 0.00 0.00 0.00 0.00 0.01 0.04 0.03 0.04 0.06 0.14 0.17 0.17 0.12 0.09 0.03 0.00 0.00 0.01 0.00 0.00 0.00 0.00 0.00
0.00 0.02 0.10 0.16 0.16 0.23 0.38 0.43 0.65 0.62 0.35 0.17 0.07 0.03 0.03 0.05 0.03 0.01 0.00 0.00 0.01 0.04 0.12 0.12 0.05 0.12 0.10 0.12 0.19 0.28 0.28 0.18 0.10 0.10 0.05 0.04 0.04 0.03 0.03 0.02 0.01 0.01 0.00
0.02 0.07 0.14 0.20 0.30 0.47 0.60 0.73 0.68 0.44 0.31 0.26 0.19 0.14 0.09 0.08 0.11 0.07 0.06 0.07 0.09 0.17 0.20 0.16 0.10 0.19 0.17 0.22 0.35 0.26 0.16 0.13 0.07 0.05 0.03 0.03 0.04 0.06 0.05 0.02 0.01 0.03 0.02
0.07 0.11 0.32 0.43 0.41 0.35 0.35 0.27 0.26 0.25 0.22 0.18 0.15 0.11 0.08 0.14 0.18 0.16 0.11 0.10 0.08 0.16 0.12 0.14 0.16 0.19 0.32 0.25 0.21 0.12 0.07 0.05 0.07 0.07 0.03 0.05 0.04 0.04 0.03 0.02 0.03 0.04 0.05
0.03 0.11 0.34 0.50 0.33 0.23 0.24 0.21 0.16 0.13 0.07 0.04 0.04 0.09 0.16 0.14 0.18 0.17 0.15 0.10 0.10 0.11 0.08 0.09 0.15 0.22 0.26 0.13 0.06 0.01 0.01 0.02 0.08 0.05 0.03 0.03 0.03 0.02 0.02 0.04 0.07 0.11 0.09
0.03 0.13 0.27 0.22 0.28 0.23 0.22 0.20 0.10 0.04 0.04 0.12 0.14 0.22 0.23 0.19 0.27 0.26 0.15 0.11 0.10 0.10 0.12 0.12 0.19 0.09 0.08 0.08 0.09 0.03 0.00 0.03 0.04 0.03 0.03 0.01 0.00 0.00 0.02 0.09 0.17 0.21 0.13
0.13 0.19 0.16 0.16 0.19 0.15 0.22 0.18 0.12 0.19 0.22 0.33 0.40 0.53 0.68 0.43 0.24 0.16 0.12 0.08 0.07 0.08 0.12 0.12 0.10 0.06 0.04 0.05 0.06 0.01 0.03 0.03 0.01 0.00 0.01 0.00 0.00 0.00 0.02 0.14 0.25 0.29 0.30
0.09 0.10 0.09 0.13 0.18 0.30 0.42 0.61 0.63 0.62 0.68 0.80 0.94 0.65 0.32 0.25 0.18 0.13 0.10 0.09 0.11 0.10 0.11 0.07 0.07 0.11 0.14 0.17 0.10 0.10 0.05 0.04 0.02 0.01 0.01 0.00 0.00 0.01 0.09 0.20 0.28 0.40 0.53
0.10 0.12 0.16 0.18 0.20 0.37 0.78 1.07 0.85 0.48 0.34 0.39 0.46 0.23 0.21 0.24 0.25 0.16 0.11 0.21 0.21 0.20 0.13 0.25 0.32 0.31 0.23 0.10 0.08 0.06 0.03 0.02 0.01 0.00 0.00 0.00 0.01 0.05 0.11 0.19 0.21 0.30 0.34
0.17 0.23 0.23 0.19 0.17 0.12 0.15 0.20 0.24 0.24 0.23 0.32 0.45 0.29 0.32 0.42 0.32 0.29 0.23 0.26 0.24 0.31 0.40 0.46 0.52 0.42 0.28 0.11 0.03 0.00 0.00 0.00 0.00 0.00 0.00 0.00 0.01 0.06 0.12 0.14 0.16 0.19 0.19
0.25 0.18 0.17 0.22 0.22 0.30 0.38 0.39 0.43 0.43 0.48 0.66 0.67 0.65 0.62 0.57 0.66 0.81 0.74 0.90 1.25 1.53 1.60 1.45 0.82 0.36 0.26 0.11 0.04 0.01 0.00 0.00 0.00 0.00 0.00 0.00 0.00 0.05 0.19 0.28 0.25 0.32 0.37
0.41 0.45 0.47 0.46 0.47 0.51 0.51 0.61 0.77 0.87 1.05 1.12 1.14 1.08 1.04 1.08 1.20 1.42 1.76 2.02 2.12 1.84 1.48 1.16 0.73 0.26 0.09 0.03 0.03 0.01 0.00 0.00 0.00 0.00 0.00 0.00 0.00 0.01 0.10 0.22 0.40 0.26 0.28
0.41 0.47 0.50 0.57 0.61 0.66 0.79 1.01 1.03 1.15 1.04 0.83 0.79 0.84 0.83 0.89 0.90 0.91 0.79 0.49 0.34 0.28 0.17 0.15 0.10 0.04 0.02 0.00 0.00 0.00 0.00 0.00 0.00 0.00 0.00 0.00 0.00 0.00 0.04 0.08 0.19 0.23 0.20
1.02 0.71 0.70 0.83 0.95 0.81 0.60 0.59 0.61 0.77 1.09 0.96 0.71 0.48 0.36 0.26 0.26 0.25 0.22 0.20 0.26 0.21 0.08 0.03 0.02 0.01 0.00 0.00 0.00 0.00 0.00 0.00 0.00 0.00 0.00 0.00 0.00 0.00 0.00 0.01 0.03 0.06 0.19
2.26 1.60 0.93 0.72 0.80 0.78 0.67 0.56 0.42 0.40 0.42 0.35 0.34 0.41 0.40 0.26 0.17 0.13 0.09 0.07 0.09 0.08 0.07 0.04 0.01 0.00 0.00 0.00 0.00 0.00 0.00 0.00 0.00 0.00 0.00 0.00 0.00 0.00 0.00 0.00 0.00 0.01 0.05
1.01 1.30 0.93 0.47 0.53 0.86 1.13 1.03 1.02 1.20 1.07 1.13 1.00 0.71 0.35 0.21 0.16 0.15 0.14 0.12 0.10 0.07 0.05 0.04 0.01 0.00 0.00 0.00 0.00 0.00 0.00 0.00 0.00 0.00 0.00 0.00 0.00 0.00 0.00 0.00 0.00 0.00 0.00
0.28 0.34 0.37 0.20 0.21 0.23 0.33 0.40 0.57 0.63 0.81 0.98 1.06 0.91 0.51 0.20 0.08 0.05 0.06 0.07 0.09 0.07 0.03 0.00 0.00 0.00 0.00 0.00 0.00 0.00 0.00 0.00 0.00 0.00 0.00 0.00 0.00 0.00 0.00 0.00 0.00 0.00 0.00
0.09 0.14 0.14 0.14 0.13 0.10 0.14 0.20 0.16 0.12 0.11 0.15 0.17 0.16 0.13 0.07 0.06 0.06 0.06 0.06 0.05 0.03 0.01 0.00 0.00 0.00 0.00 0.00 0.00 0.00 0.00 0.00 0.00 0.00 0.00 0.00 0.00 0.00 0.00 0.00 0.00 0.00 0.00
0.14 0.19 0.16 0.15 0.07 0.06 0.07 0.07 0.07 0.11 0.12 0.16 0.15 0.09 0.07 0.09 0.11 0.09 0.04 0.01 0.00 0.00 0.00 0.00 0.00 0.00 0.00 0.00 0.00 0.00 0.00 0.00 0.00 0.00 0.00 0.00 0.00 0.00 0.00 0.00 0.00 0.00 0.00
0.06 0.12 0.17 0.19 0.20 0.20 0.16 0.13 0.10 0.12 0.13 0.13 0.12 0.11 0.10 0.10 0.04 0.02 0.00 0.00 0.00 0.00 0.00 0.00 0.00 0.00 0.00 0.00 0.00 0.00 0.00 0.00 0.00 0.00 0.00 0.00 0.00 0.00 0.00 0.00 0.00 0.00 0.00
0.02 0.05 0.10 0.15 0.14 0.16 0.17 0.16 0.18 0.14 0.11 0.08 0.06 0.05 0.03 0.02 0.00 0.00 0.00 0.00 0.00 0.00 0.00 0.00 0.00 0.00 0.00 0.00 0.00 0.00 0.00 0.00 0.00 0.00 0.00 0.00 0.00 0.00 0.00 0.00 0.00 0.00 0.00
0.04 0.10 0.10 0.08 0.09 0.08 0.04 0.05 0.07 0.12 0.14 0.15 0.14 0.15 0.12 0.11 0.07 0.02 0.00 0.00 0.00 0.00 0.00 0.00 0.00 0.00 0.00 0.00 0.00 0.00 0.00 0.00 0.00 0.00 0.00 0.00 0.00 0.00 0.00 0.00 0.00 0.00 0.00